EW7643 Weather Reports


Display with metric or nautical units.
time (UTC)temp
F
wind
direction
speed
MPH
gust
MPH
rain 1hr
in
rain 24hr
in
rain mn
in
humidity
%
barometer
mb
20260831004528 87 109 0.0 2.0 0.00 0.01 0.00 70 1014.0
20260831003026 87 127 0.0 2.0 0.00 0.01 0.00 68 1014.0
20260831001528 88 109 0.0 2.0 0.00 0.01 0.00 66 1014.0
20260831000019 89 111 0.0 0.0 0.00 0.01 0.00 62 1014.1
20260830234529 90 100 0.0 0.0 0.00 0.01 0.00 57 1014.0
20260830233030 91 110 0.0 0.0 0.00 0.01 0.00 57 1013.8
20260830231509 92 97 0.0 2.0 0.00 0.01 0.00 55 1013.9
20260830230019 94 100 0.0 1.0 0.00 0.01 0.00 52 1013.8
20260830224529 94 94 0.0 0.0 0.00 0.01 0.00 52 1013.9
20260830223032 95 122 0.0 0.0 0.00 0.01 0.00 51 1013.8
20260830221530 95 114 0.0 0.0 0.00 0.01 0.00 50 1013.7
20260830220011 96 105 0.0 1.0 0.00 0.01 0.00 50 1013.6
20260830214515 96 99 0.0 1.0 0.00 0.01 0.00 49 1013.6
20260830213028 95 94 0.0 0.0 0.00 0.01 0.00 55 1013.7
20260830211532 93 72 0.0 0.0 0.00 0.01 0.00 58 1014.0
20260830210034 93 76 0.0 0.0 0.00 0.01 0.00 56 1014.1
20260830204516 93 100 0.0 0.0 0.00 0.01 0.00 56 1014.3
20260830203030 92 89 0.0 0.0 0.00 0.01 0.00 59 1014.4
20260830201541 93 98 0.0 0.0 0.00 0.01 0.00 59 1014.7
20260830200027 94 63 0.0 0.0 0.00 0.01 0.00 56 1015.0
20260830194531 97 59 0.0 0.0 0.00 0.01 0.00 53 1015.1
20260830193014 99 107 0.0 0.0 0.00 0.01 0.00 48 1015.3
20260830191524 99 112 0.0 0.0 0.00 0.01 0.00 45 1015.5
20260830190034 98 108 0.0 1.0 0.00 0.01 0.00 47 1015.7
20260830184531 97 285 0.0 2.0 0.00 0.01 0.00 45 1016.1
20260830183036 97 77 0.0 0.0 0.00 0.01 0.00 46 1016.2
20260830181516 96 71 0.0 0.0 0.00 0.01 0.00 47 1016.5
20260830180024 96 68 0.0 0.0 0.00 0.01 0.00 51 1016.7
20260830174531 96 122 0.0 0.0 0.00 0.01 0.00 54 1016.9
20260830173008 94 116 0.0 0.0 0.00 0.01 0.00 49 1017.1
20260830171511 95 116 0.0 0.0 0.00 0.01 0.00 53 1017.3
20260830170018 94 106 0.0 2.0 0.00 0.01 0.00 55 1017.2
20260830164510 93 70 0.0 0.0 0.00 0.01 0.00 56 1017.3
20260830163007 92 63 0.0 0.0 0.00 0.01 0.00 58 1017.3
20260830161508 92 79 0.0 1.0 0.00 0.01 0.00 61 1017.4
20260830160016 91 296 0.0 0.0 0.00 0.01 0.00 61 1017.4
20260830154520 91 60 0.0 0.0 0.00 0.01 0.00 65 1017.3
20260830153003 89 113 0.0 0.0 0.00 0.01 0.00 67 1017.3
20260830151504 89 113 0.0 0.0 0.00 0.01 0.00 69 1017.4
20260830150011 88 101 0.0 0.0 0.00 0.01 0.00 71 1017.4
20260830144517 87 179 0.0 2.0 0.00 0.01 0.00 74 1017.4
20260830143028 89 89 0.0 0.0 0.00 0.01 0.00 70 1017.5
20260830141503 89 129 0.0 0.0 0.00 0.01 0.00 74 1017.4
20260830140010 86 320 0.0 0.0 0.00 0.01 0.00 78 1017.3
20260830134517 83 326 0.0 0.0 0.00 0.01 0.00 80 1017.3
20260830133024 80 120 0.0 1.0 0.00 0.01 0.00 65 1016.9
20260830131531 78 120 0.0 0.0 0.00 0.01 0.00 64 1016.8
20260830130007 76 120 0.0 0.0 0.00 0.01 0.00 64 1016.7
20260830124537 0 0.0 0.0 0.00 0.01 0.00 1016.6
20260830123041 0 0.0 0.0 0.00 0.01 0.00 1016.5
20260830121534 0 0.0 0.0 0.00 0.01 0.00 1016.5
20260830120034 0 0.0 0.0 0.00 0.01 0.00 1016.4
20260830114534 0 0.0 0.0 0.00 0.01 0.00 1016.4
20260830113033 0 0.0 0.0 0.00 0.01 0.00 1016.4
20260830111534 0 0.0 0.0 0.00 0.01 0.00 1016.3
20260830110035 0 0.0 0.0 0.00 0.01 0.00 1016.1
20260830104536 0 0.0 0.0 0.00 0.01 0.00 1016.2
20260830103034 0 0.0 0.0 0.00 0.01 0.00 1016.0
20260830101535 0 0.0 0.0 0.00 0.01 0.00 1016.0
20260830100036 0 0.0 0.0 0.00 0.01 0.00 1015.9
20260830094535 0 0.0 0.0 0.00 0.01 0.00 1015.9
20260830093035 73 0.0 0.0 0.00 0.01 0.00 70 1015.8
20260830091528 74 120 0.0 0.0 0.00 0.01 0.00 71 1015.8
20260830090040 74 120 0.0 0.0 0.00 0.01 0.00 72 1015.6
20260830084519 75 120 0.0 0.0 0.00 0.01 0.00 72 1015.9
20260830083051 75 120 0.0 0.0 0.00 0.01 0.00 73 1015.9
20260830081523 76 120 0.0 0.0 0.00 0.01 0.00 73 1015.9
20260830080032 76 120 0.0 0.0 0.00 0.01 0.00 74 1015.9
20260830074544 76 120 0.0 0.0 0.00 0.01 0.00 73 1016.0
20260830073020 76 120 0.0 0.0 0.00 0.01 0.00 75 1016.1
20260830071509 76 120 0.0 0.0 0.00 0.01 0.00 78 1016.1
20260830070013 77 120 0.0 0.0 0.00 0.01 0.00 78 1016.1
20260830064521 77 120 0.0 0.0 0.00 0.01 0.00 80 1016.0
20260830063015 78 120 0.0 0.0 0.00 0.01 0.00 80 1015.9
20260830061521 78 120 0.0 0.0 0.00 0.01 0.00 81 1016.0
20260830060006 79 120 0.0 0.0 0.00 0.01 0.00 81 1016.0
20260830054511 79 120 0.0 0.0 0.00 0.01 0.00 81 1016.1
20260830053010 79 120 0.0 0.0 0.00 0.01 0.00 81 1016.0
20260830051522 79 120 0.0 0.0 0.00 0.01 0.00 81 1016.1
20260830050021 80 120 0.0 0.0 0.00 0.01 0.00 81 1016.1
20260830044503 80 120 0.0 0.0 0.00 0.01 0.01 81 1016.2
20260830043006 80 120 0.0 0.0 0.00 0.01 0.01 81 1016.2
20260830041514 80 120 0.0 0.0 0.00 0.01 0.01 81 1016.3
20260830040021 81 120 0.0 0.0 0.00 0.01 0.01 81 1016.3
20260830034523 81 120 0.0 0.0 0.00 0.01 0.01 81 1016.1
20260830033010 82 120 0.0 0.0 0.00 0.01 0.01 81 1016.1
20260830031535 82 120 0.0 0.0 0.00 0.01 0.01 80 1016.0
20260830030044 82 120 0.0 0.0 0.00 0.01 0.01 80 1015.9
20260830024530 83 120 0.0 0.0 0.00 0.01 0.01 79 1015.8
20260830023028 83 120 0.0 0.0 0.00 0.01 0.01 79 1015.7
20260830021529 83 120 0.0 0.0 0.00 0.01 0.01 79 1015.4
20260830020034 83 120 0.0 0.0 0.01 0.01 0.01 78 1015.4
20260830014534 84 120 0.0 0.0 0.01 0.01 0.01 77 1015.3
20260830013018 84 102 0.0 0.0 0.01 0.01 0.01 77 1015.2
20260830011534 85 118 0.0 0.0 0.01 0.01 0.01 76 1014.9
20260830010037 85 93 0.0 0.0 0.00 0.00 0.00 75 1014.8